Year,Month,Day,Hour,Minute,Value (Times are PST for windgust in km/hr)
2013,09,28,00,00,1.60
2013,09,28,00,01,4.80
2013,09,28,00,02,1.60
2013,09,28,00,04,1.60
2013,09,28,00,06,1.60
2013,09,28,00,07,1.60
2013,09,28,00,08,4.80
2013,09,28,00,09,1.60
2013,09,28,00,10,1.60
2013,09,28,00,12,1.60
2013,09,28,00,19,4.80
2013,09,28,00,23,3.20
2013,09,28,00,24,1.60
2013,09,28,00,25,1.60
2013,09,28,00,26,1.60
2013,09,28,00,46,1.60
2013,09,28,00,48,4.80
2013,09,28,00,50,1.60
2013,09,28,00,53,1.60
2013,09,28,00,57,1.60
2013,09,28,00,58,1.60
2013,09,28,01,05,3.20
2013,09,28,01,13,1.60
2013,09,28,01,14,3.20
2013,09,28,01,23,1.60
2013,09,28,01,25,1.60
2013,09,28,01,26,1.60
2013,09,28,01,29,1.60
2013,09,28,01,33,1.60
2013,09,28,01,40,3.20
2013,09,28,01,41,1.60
2013,09,28,01,46,1.60
2013,09,28,01,47,1.60
2013,09,28,01,48,1.60
2013,09,28,01,49,1.60
2013,09,28,01,50,1.60
2013,09,28,01,51,1.60
2013,09,28,01,52,1.60
2013,09,28,01,53,1.60
2013,09,28,01,54,1.60
2013,09,28,01,56,1.60
2013,09,28,01,59,1.60
2013,09,28,02,05,1.60
2013,09,28,02,06,1.60
2013,09,28,02,08,3.20
2013,09,28,02,09,1.60
2013,09,28,02,10,1.60
2013,09,28,02,11,1.60
2013,09,28,02,13,1.60
2013,09,28,02,17,1.60
2013,09,28,02,34,1.60
2013,09,28,02,37,1.60
2013,09,28,02,39,1.60
2013,09,28,02,40,1.60
2013,09,28,02,44,1.60
2013,09,28,03,08,1.60
2013,09,28,03,09,3.20
2013,09,28,03,10,3.20
2013,09,28,03,11,4.80
2013,09,28,03,12,3.20
2013,09,28,03,13,3.20
2013,09,28,03,14,3.20
2013,09,28,03,15,1.60
2013,09,28,03,16,3.20
2013,09,28,03,17,4.80
2013,09,28,03,18,3.20
2013,09,28,03,19,4.80
2013,09,28,03,20,3.20
2013,09,28,03,21,3.20
2013,09,28,03,22,3.20
2013,09,28,03,23,1.60
2013,09,28,03,24,1.60
2013,09,28,03,25,1.60
2013,09,28,03,26,4.80
2013,09,28,03,27,3.20
2013,09,28,03,28,1.60
2013,09,28,03,29,3.20
2013,09,28,03,30,1.60
2013,09,28,03,31,4.80
2013,09,28,03,32,3.20
2013,09,28,03,33,4.80
2013,09,28,03,34,4.80
2013,09,28,03,35,4.80
2013,09,28,03,36,3.20
2013,09,28,03,37,1.60
2013,09,28,03,38,1.60
2013,09,28,03,39,1.60
2013,09,28,03,41,3.20
2013,09,28,03,47,3.20
2013,09,28,03,48,1.60
2013,09,28,03,49,1.60
2013,09,28,03,53,1.60
2013,09,28,03,59,3.20
2013,09,28,04,00,1.60
2013,09,28,04,01,3.20
2013,09,28,04,02,1.60
2013,09,28,04,04,1.60
2013,09,28,04,05,3.20
2013,09,28,04,06,1.60
2013,09,28,04,10,3.20
2013,09,28,04,11,1.60
2013,09,28,04,12,1.60
2013,09,28,04,13,4.80
2013,09,28,04,14,1.60
2013,09,28,04,24,1.60
2013,09,28,04,25,1.60
2013,09,28,04,27,1.60
2013,09,28,04,28,1.60
2013,09,28,04,29,1.60
2013,09,28,04,51,1.60
2013,09,28,04,52,1.60
2013,09,28,04,53,1.60
2013,09,28,04,57,1.60
2013,09,28,04,58,1.60
2013,09,28,04,59,1.60
2013,09,28,05,07,3.20
2013,09,28,05,16,1.60
2013,09,28,05,17,1.60
2013,09,28,05,18,1.60
2013,09,28,05,20,1.60
2013,09,28,05,23,3.20
2013,09,28,05,24,1.60
2013,09,28,05,25,3.20
2013,09,28,05,26,4.80
2013,09,28,05,27,4.80
2013,09,28,05,28,1.60
2013,09,28,05,29,4.80
2013,09,28,05,30,3.20
2013,09,28,05,31,4.80
2013,09,28,05,32,1.60
2013,09,28,05,34,4.80
2013,09,28,05,35,1.60
2013,09,28,05,36,3.20
2013,09,28,05,37,3.20
2013,09,28,05,38,1.60
2013,09,28,05,39,4.80
2013,09,28,05,41,1.60
2013,09,28,05,43,1.60
2013,09,28,05,44,3.20
2013,09,28,05,45,1.60
2013,09,28,05,47,3.20
2013,09,28,05,48,1.60
2013,09,28,05,49,1.60
2013,09,28,05,50,11.30
2013,09,28,05,51,6.40
2013,09,28,05,52,1.60
2013,09,28,05,53,4.80
2013,09,28,05,54,1.60
2013,09,28,05,55,4.80
2013,09,28,05,56,6.40
2013,09,28,05,57,3.20
2013,09,28,05,58,14.50
2013,09,28,05,59,4.80
2013,09,28,06,00,3.20
2013,09,28,06,01,6.40
2013,09,28,06,02,6.40
2013,09,28,06,03,9.60
2013,09,28,06,04,8.10
2013,09,28,06,05,8.10
2013,09,28,06,06,3.20
2013,09,28,06,07,4.80
2013,09,28,06,08,4.80
2013,09,28,06,09,3.20
2013,09,28,06,10,1.60
2013,09,28,06,11,4.80
2013,09,28,06,12,1.60
2013,09,28,06,13,4.80
2013,09,28,06,14,4.80
2013,09,28,06,15,3.20
2013,09,28,06,16,3.20
2013,09,28,06,17,11.30
2013,09,28,06,18,4.80
2013,09,28,06,19,4.80
2013,09,28,06,20,9.60
2013,09,28,06,21,12.90
2013,09,28,06,22,8.10
2013,09,28,06,23,4.80
2013,09,28,06,24,9.60
2013,09,28,06,25,11.30
2013,09,28,06,26,9.60
2013,09,28,06,27,6.40
2013,09,28,06,28,8.10
2013,09,28,06,29,4.80
2013,09,28,06,30,12.90
2013,09,28,06,31,6.40
2013,09,28,06,32,4.80
2013,09,28,06,33,6.40
2013,09,28,06,34,11.30
2013,09,28,06,35,12.90
2013,09,28,06,36,9.60
2013,09,28,06,37,9.60
2013,09,28,06,38,11.30
2013,09,28,06,39,8.10
2013,09,28,06,40,4.80
2013,09,28,06,41,4.80
2013,09,28,06,42,14.50
2013,09,28,06,43,12.90
2013,09,28,06,44,14.50
2013,09,28,06,45,12.90
2013,09,28,06,46,8.10
2013,09,28,06,47,8.10
2013,09,28,06,48,14.50
2013,09,28,06,49,8.10
2013,09,28,06,50,12.90
2013,09,28,06,51,9.60
2013,09,28,06,52,11.30
2013,09,28,06,53,6.40
2013,09,28,06,54,16.10
2013,09,28,06,55,4.80
2013,09,28,06,56,6.40
2013,09,28,06,57,14.50
2013,09,28,06,58,9.60
2013,09,28,06,59,19.30
2013,09,28,07,00,6.40
2013,09,28,07,01,14.50
2013,09,28,07,02,11.30
2013,09,28,07,03,8.10
2013,09,28,07,04,3.20
2013,09,28,07,05,14.50
2013,09,28,07,06,11.30
2013,09,28,07,07,14.50
2013,09,28,07,08,6.40
2013,09,28,07,09,17.70
2013,09,28,07,10,14.50
2013,09,28,07,11,9.60
2013,09,28,07,12,8.10
2013,09,28,07,13,14.50
2013,09,28,07,14,12.90
2013,09,28,07,15,20.90
2013,09,28,07,16,9.60
2013,09,28,07,17,4.80
2013,09,28,07,18,12.90
2013,09,28,07,19,8.10
2013,09,28,07,20,6.40
2013,09,28,07,21,11.30
2013,09,28,07,22,11.30
2013,09,28,07,23,22.50
2013,09,28,07,24,14.50
2013,09,28,07,25,12.90
2013,09,28,07,26,17.70
2013,09,28,07,27,12.90
2013,09,28,07,28,16.10
2013,09,28,07,29,12.90
2013,09,28,07,30,11.30
2013,09,28,07,31,8.10
2013,09,28,07,32,8.10
2013,09,28,07,33,9.60
2013,09,28,07,34,9.60
2013,09,28,07,35,8.10
2013,09,28,07,36,8.10
2013,09,28,07,37,9.60
2013,09,28,07,38,11.30
2013,09,28,07,39,6.40
2013,09,28,07,40,16.10
2013,09,28,07,41,11.30
2013,09,28,07,42,3.20
2013,09,28,07,43,16.10
2013,09,28,07,44,16.10
2013,09,28,07,45,17.70
2013,09,28,07,46,16.10
2013,09,28,07,47,14.50
2013,09,28,07,48,20.90
2013,09,28,07,49,11.30
2013,09,28,07,50,12.90
2013,09,28,07,51,12.90
2013,09,28,07,52,12.90
2013,09,28,07,53,19.30
2013,09,28,07,54,14.50
2013,09,28,07,55,14.50
2013,09,28,07,56,14.50
2013,09,28,07,57,14.50
2013,09,28,07,58,11.30
2013,09,28,07,59,19.30
2013,09,28,08,00,14.50
2013,09,28,08,01,12.90
2013,09,28,08,02,17.70
2013,09,28,08,03,20.90
2013,09,28,08,04,11.30
2013,09,28,08,05,9.60
2013,09,28,08,06,14.50
2013,09,28,08,07,11.30
2013,09,28,08,08,4.80
2013,09,28,08,09,16.10
2013,09,28,08,10,20.90
2013,09,28,08,11,11.30
2013,09,28,08,12,9.60
2013,09,28,08,13,9.60
2013,09,28,08,14,11.30
2013,09,28,08,15,12.90
2013,09,28,08,16,14.50
2013,09,28,08,17,17.70
2013,09,28,08,18,14.50
2013,09,28,08,19,11.30
2013,09,28,08,20,11.30
2013,09,28,08,21,9.60
2013,09,28,08,22,20.90
2013,09,28,08,23,16.10
2013,09,28,08,24,14.50
2013,09,28,08,25,14.50
2013,09,28,08,26,9.60
2013,09,28,08,27,14.50
2013,09,28,08,28,17.70
2013,09,28,08,29,12.90
2013,09,28,08,30,12.90
2013,09,28,08,31,20.90
2013,09,28,08,32,14.50
2013,09,28,08,33,11.30
2013,09,28,08,34,11.30
2013,09,28,08,35,8.10
2013,09,28,08,36,6.40
2013,09,28,08,37,11.30
2013,09,28,08,38,9.60
2013,09,28,08,39,11.30
2013,09,28,08,40,12.90
2013,09,28,08,41,11.30
2013,09,28,08,42,11.30
2013,09,28,08,43,12.90
2013,09,28,08,44,3.20
2013,09,28,08,45,11.30
2013,09,28,08,46,14.50
2013,09,28,08,47,12.90
2013,09,28,08,48,12.90
2013,09,28,08,49,14.50
2013,09,28,08,50,11.30
2013,09,28,08,51,4.80
2013,09,28,08,52,12.90
2013,09,28,08,53,9.60
2013,09,28,08,54,12.90
2013,09,28,08,55,11.30
2013,09,28,08,56,6.40
2013,09,28,08,57,6.40
2013,09,28,08,58,11.30
2013,09,28,08,59,8.10
2013,09,28,09,00,4.80
2013,09,28,09,01,1.60
2013,09,28,09,02,6.40
2013,09,28,09,03,8.10
2013,09,28,09,04,4.80
2013,09,28,09,05,4.80
2013,09,28,09,06,4.80
2013,09,28,09,07,6.40
2013,09,28,09,08,6.40
2013,09,28,09,09,4.80
2013,09,28,09,10,4.80
2013,09,28,09,11,3.20
2013,09,28,09,13,1.60
2013,09,28,09,14,6.40
2013,09,28,09,15,4.80
2013,09,28,09,16,4.80
2013,09,28,09,17,1.60
2013,09,28,09,18,3.20
2013,09,28,09,19,1.60
2013,09,28,09,21,1.60
2013,09,28,09,22,1.60
2013,09,28,09,23,1.60
2013,09,28,09,25,1.60
2013,09,28,09,26,4.80
2013,09,28,09,27,3.20
2013,09,28,09,28,11.30
2013,09,28,09,29,8.10
2013,09,28,09,30,3.20
2013,09,28,09,31,8.10
2013,09,28,09,32,8.10
2013,09,28,09,33,8.10
2013,09,28,09,34,6.40
2013,09,28,09,35,8.10
2013,09,28,09,36,1.60
2013,09,28,09,37,6.40
2013,09,28,09,38,6.40
2013,09,28,09,39,8.10
2013,09,28,09,40,3.20
2013,09,28,09,41,4.80
2013,09,28,09,42,4.80
2013,09,28,09,43,4.80
2013,09,28,09,44,6.40
2013,09,28,09,45,8.10
2013,09,28,09,46,4.80
2013,09,28,09,47,9.60
2013,09,28,09,48,6.40
2013,09,28,09,49,3.20
2013,09,28,09,50,3.20
2013,09,28,09,51,3.20
2013,09,28,09,52,4.80
2013,09,28,09,53,1.60
2013,09,28,09,54,8.10
2013,09,28,09,55,8.10
2013,09,28,09,56,3.20
2013,09,28,09,57,1.60
2013,09,28,09,58,3.20
2013,09,28,09,59,4.80
2013,09,28,10,00,1.60
2013,09,28,10,01,3.20
2013,09,28,10,02,8.10
2013,09,28,10,03,4.80
2013,09,28,10,04,4.80
2013,09,28,10,05,3.20
2013,09,28,10,06,4.80
2013,09,28,10,07,1.60
2013,09,28,10,08,1.60
2013,09,28,10,09,1.60
2013,09,28,10,10,3.20
2013,09,28,10,11,1.60
2013,09,28,10,12,1.60
2013,09,28,10,13,1.60
2013,09,28,10,14,3.20
2013,09,28,10,15,1.60
2013,09,28,10,16,3.20
2013,09,28,10,17,9.60
2013,09,28,10,18,4.80
2013,09,28,10,19,4.80
2013,09,28,10,20,6.40
2013,09,28,10,21,8.10
2013,09,28,10,22,3.20
2013,09,28,10,23,9.60
2013,09,28,10,24,6.40
2013,09,28,10,25,11.30
2013,09,28,10,26,8.10
2013,09,28,10,27,4.80
2013,09,28,10,28,8.10
2013,09,28,10,29,3.20
2013,09,28,10,30,4.80
2013,09,28,10,31,3.20
2013,09,28,10,32,8.10
2013,09,28,10,33,3.20
2013,09,28,10,34,8.10
2013,09,28,10,35,9.60
2013,09,28,10,36,12.90
2013,09,28,10,37,4.80
2013,09,28,10,38,11.30
2013,09,28,10,39,11.30
2013,09,28,10,40,14.50
2013,09,28,10,41,4.80
2013,09,28,10,42,3.20
2013,09,28,10,43,3.20
2013,09,28,10,44,4.80
2013,09,28,10,45,11.30
2013,09,28,10,46,3.20
2013,09,28,10,47,6.40
2013,09,28,10,48,3.20
2013,09,28,10,49,1.60
2013,09,28,10,50,11.30
2013,09,28,10,51,16.10
2013,09,28,10,52,8.10
2013,09,28,10,53,3.20
2013,09,28,10,54,14.50
2013,09,28,10,55,16.10
2013,09,28,10,56,9.60
2013,09,28,10,57,11.30
2013,09,28,10,58,9.60
2013,09,28,10,59,24.20
2013,09,28,11,00,11.30
2013,09,28,11,01,9.60
2013,09,28,11,02,14.50
2013,09,28,11,03,11.30
2013,09,28,11,04,8.10
2013,09,28,11,05,11.30
2013,09,28,11,06,4.80
2013,09,28,11,07,16.10
2013,09,28,11,08,11.30
2013,09,28,11,09,6.40
2013,09,28,11,10,8.10
2013,09,28,11,11,3.20
2013,09,28,11,12,12.90
2013,09,28,11,13,9.60
2013,09,28,11,14,9.60
2013,09,28,11,15,12.90
2013,09,28,11,16,4.80
2013,09,28,11,17,1.60
2013,09,28,11,18,3.20
2013,09,28,11,19,4.80
2013,09,28,11,20,6.40
2013,09,28,11,21,3.20
2013,09,28,11,22,8.10
2013,09,28,11,23,1.60
2013,09,28,11,24,6.40
2013,09,28,11,25,6.40
2013,09,28,11,26,3.20
2013,09,28,11,27,4.80
2013,09,28,11,28,1.60
2013,09,28,11,32,3.20
2013,09,28,11,33,1.60
2013,09,28,11,34,1.60
2013,09,28,11,35,1.60
2013,09,28,11,36,3.20
2013,09,28,11,37,3.20
2013,09,28,11,38,6.40
2013,09,28,11,39,8.10
2013,09,28,11,40,4.80
2013,09,28,11,41,3.20
2013,09,28,11,42,3.20
2013,09,28,11,43,1.60
2013,09,28,11,44,3.20
2013,09,28,11,45,1.60
2013,09,28,11,46,4.80
2013,09,28,11,47,4.80
2013,09,28,11,48,1.60
2013,09,28,11,49,1.60
2013,09,28,11,50,1.60
2013,09,28,11,51,1.60
2013,09,28,11,52,3.20
2013,09,28,11,53,8.10
2013,09,28,11,54,6.40
2013,09,28,11,55,4.80
2013,09,28,11,56,8.10
2013,09,28,11,57,9.60
2013,09,28,11,58,6.40
2013,09,28,11,59,1.60
2013,09,28,12,00,4.80
2013,09,28,12,01,1.60
2013,09,28,12,02,1.60
2013,09,28,12,03,4.80
2013,09,28,12,04,1.60
2013,09,28,12,05,3.20
2013,09,28,12,06,1.60
2013,09,28,12,07,1.60
2013,09,28,12,08,3.20
2013,09,28,12,09,3.20
2013,09,28,12,10,3.20
2013,09,28,12,13,3.20
2013,09,28,12,14,3.20
2013,09,28,12,15,6.40
2013,09,28,12,16,4.80
2013,09,28,12,17,6.40
2013,09,28,12,18,8.10
2013,09,28,12,19,4.80
2013,09,28,12,20,9.60
2013,09,28,12,21,3.20
2013,09,28,12,23,1.60
2013,09,28,12,24,6.40
2013,09,28,12,25,1.60
2013,09,28,12,26,8.10
2013,09,28,12,27,3.20
2013,09,28,12,28,8.10
2013,09,28,12,29,3.20
2013,09,28,12,30,4.80
2013,09,28,12,31,1.60
2013,09,28,12,32,1.60
2013,09,28,12,38,1.60
2013,09,28,12,39,1.60
2013,09,28,12,40,4.80
2013,09,28,12,43,1.60
2013,09,28,12,44,1.60
2013,09,28,12,51,1.60
2013,09,28,12,52,1.60
2013,09,28,13,00,1.60
2013,09,28,13,02,1.60
2013,09,28,13,03,3.20
2013,09,28,13,04,3.20
2013,09,28,13,05,1.60
2013,09,28,13,06,3.20
2013,09,28,13,07,1.60
2013,09,28,13,08,1.60
2013,09,28,13,09,3.20
2013,09,28,13,10,3.20
2013,09,28,13,11,1.60
2013,09,28,13,12,1.60
2013,09,28,13,13,1.60
2013,09,28,13,14,1.60
2013,09,28,13,15,8.10
2013,09,28,13,16,8.10
2013,09,28,13,17,12.90
2013,09,28,13,18,11.30
2013,09,28,13,19,9.60
2013,09,28,13,20,6.40
2013,09,28,13,21,4.80
2013,09,28,13,22,4.80
2013,09,28,13,23,3.20
2013,09,28,13,24,4.80
2013,09,28,13,25,4.80
2013,09,28,13,26,4.80
2013,09,28,13,27,3.20
2013,09,28,13,28,4.80
2013,09,28,13,29,8.10
2013,09,28,13,30,4.80
2013,09,28,13,31,4.80
2013,09,28,13,32,6.40
2013,09,28,13,33,6.40
2013,09,28,13,34,1.60
2013,09,28,13,35,1.60
2013,09,28,13,36,4.80
2013,09,28,13,37,9.60
2013,09,28,13,38,4.80
2013,09,28,13,39,8.10
2013,09,28,13,40,6.40
2013,09,28,13,41,11.30
2013,09,28,13,42,9.60
2013,09,28,13,43,8.10
2013,09,28,13,44,4.80
2013,09,28,13,45,3.20
2013,09,28,13,51,1.60
2013,09,28,13,52,1.60
2013,09,28,13,53,4.80
2013,09,28,13,54,3.20
2013,09,28,13,55,3.20
2013,09,28,13,56,1.60
2013,09,28,13,57,3.20
2013,09,28,13,58,4.80
2013,09,28,13,59,3.20
2013,09,28,14,00,3.20
2013,09,28,14,01,4.80
2013,09,28,14,02,4.80
2013,09,28,14,03,6.40
2013,09,28,14,04,4.80
2013,09,28,14,07,1.60
2013,09,28,14,09,1.60
2013,09,28,14,10,1.60
2013,09,28,14,12,1.60
2013,09,28,14,13,1.60
2013,09,28,14,14,1.60
2013,09,28,14,16,1.60
2013,09,28,14,17,8.10
2013,09,28,14,18,6.40
2013,09,28,14,19,6.40
2013,09,28,14,20,8.10
2013,09,28,14,21,9.60
2013,09,28,14,22,8.10
2013,09,28,14,23,8.10
2013,09,28,14,24,8.10
2013,09,28,14,25,9.60
2013,09,28,14,26,8.10
2013,09,28,14,27,4.80
2013,09,28,14,28,6.40
2013,09,28,14,29,6.40
2013,09,28,14,30,14.50
2013,09,28,14,31,9.60
2013,09,28,14,32,6.40
2013,09,28,14,33,9.60
2013,09,28,14,34,14.50
2013,09,28,14,35,11.30
2013,09,28,14,36,9.60
2013,09,28,14,37,11.30
2013,09,28,14,38,8.10
2013,09,28,14,39,8.10
2013,09,28,14,40,8.10
2013,09,28,14,41,6.40
2013,09,28,14,42,11.30
2013,09,28,14,43,4.80
2013,09,28,14,44,9.60
2013,09,28,14,45,4.80
2013,09,28,14,46,11.30
2013,09,28,14,47,12.90
2013,09,28,14,48,3.20
2013,09,28,14,49,3.20
2013,09,28,14,50,6.40
2013,09,28,14,51,14.50
2013,09,28,14,52,6.40
2013,09,28,14,53,6.40
2013,09,28,14,54,4.80
2013,09,28,14,55,9.60
2013,09,28,14,56,12.90
2013,09,28,14,57,8.10
2013,09,28,14,58,9.60
2013,09,28,14,59,4.80
2013,09,28,15,00,9.60
2013,09,28,15,01,6.40
2013,09,28,15,02,4.80
2013,09,28,15,03,14.50
2013,09,28,15,04,6.40
2013,09,28,15,05,9.60
2013,09,28,15,06,12.90
2013,09,28,15,07,14.50
2013,09,28,15,08,20.90
2013,09,28,15,09,12.90
2013,09,28,15,10,6.40
2013,09,28,15,11,9.60
2013,09,28,15,12,3.20
2013,09,28,15,13,1.60
2013,09,28,15,14,1.60
2013,09,28,15,15,1.60
2013,09,28,15,16,1.60
2013,09,28,15,17,4.80
2013,09,28,15,18,3.20
2013,09,28,15,20,8.10
2013,09,28,15,21,3.20
2013,09,28,15,22,6.40
2013,09,28,15,23,3.20
2013,09,28,15,24,1.60
2013,09,28,15,25,1.60
2013,09,28,15,27,3.20
2013,09,28,15,28,4.80
2013,09,28,15,29,3.20
2013,09,28,15,30,8.10
2013,09,28,15,31,3.20
2013,09,28,15,32,1.60
2013,09,28,15,33,3.20
2013,09,28,15,34,3.20
2013,09,28,15,35,1.60
2013,09,28,15,36,1.60
2013,09,28,15,39,3.20
2013,09,28,15,42,3.20
2013,09,28,15,43,3.20
2013,09,28,15,44,4.80
2013,09,28,15,45,3.20
2013,09,28,15,46,1.60
2013,09,28,15,47,1.60
2013,09,28,15,48,1.60
2013,09,28,15,49,3.20
2013,09,28,15,50,3.20
2013,09,28,15,51,3.20
2013,09,28,15,52,4.80
2013,09,28,15,53,3.20
2013,09,28,15,54,9.60
2013,09,28,15,55,6.40
2013,09,28,15,56,1.60
2013,09,28,15,57,1.60
2013,09,28,16,02,1.60
2013,09,28,16,06,1.60
2013,09,28,16,08,1.60
2013,09,28,16,09,1.60
2013,09,28,16,10,8.10
2013,09,28,16,11,3.20
2013,09,28,16,12,6.40
2013,09,28,16,13,8.10
2013,09,28,16,14,8.10
2013,09,28,16,15,9.60
2013,09,28,16,16,8.10
2013,09,28,16,17,4.80
2013,09,28,16,18,8.10
2013,09,28,16,19,11.30
2013,09,28,16,20,4.80
2013,09,28,16,21,6.40
2013,09,28,16,22,9.60
2013,09,28,16,23,11.30
2013,09,28,16,24,6.40
2013,09,28,16,25,8.10
2013,09,28,16,26,11.30
2013,09,28,16,27,11.30
2013,09,28,16,28,11.30
2013,09,28,16,29,8.10
2013,09,28,16,30,9.60
2013,09,28,16,31,14.50
2013,09,28,16,32,11.30
2013,09,28,16,33,6.40
2013,09,28,16,34,8.10
2013,09,28,16,35,11.30
2013,09,28,16,36,6.40
2013,09,28,16,37,14.50
2013,09,28,16,38,9.60
2013,09,28,16,39,6.40
2013,09,28,16,40,4.80
2013,09,28,16,41,9.60
2013,09,28,16,42,11.30
2013,09,28,16,43,8.10
2013,09,28,16,44,16.10
2013,09,28,16,45,9.60
2013,09,28,16,46,11.30
2013,09,28,16,47,8.10
2013,09,28,16,48,8.10
2013,09,28,16,49,6.40
2013,09,28,16,50,8.10
2013,09,28,16,51,4.80
2013,09,28,16,52,14.50
2013,09,28,16,53,17.70
2013,09,28,16,54,8.10
2013,09,28,16,55,8.10
2013,09,28,16,56,6.40
2013,09,28,16,57,9.60
2013,09,28,16,58,9.60
2013,09,28,16,59,4.80
2013,09,28,17,00,9.60
2013,09,28,17,01,12.90
2013,09,28,17,02,19.30
2013,09,28,17,03,6.40
2013,09,28,17,04,6.40
2013,09,28,17,05,3.20
2013,09,28,17,06,4.80
2013,09,28,17,07,14.50
2013,09,28,17,08,12.90
2013,09,28,17,09,3.20
2013,09,28,17,10,8.10
2013,09,28,17,11,6.40
2013,09,28,17,12,12.90
2013,09,28,17,13,11.30
2013,09,28,17,14,8.10
2013,09,28,17,15,4.80
2013,09,28,17,16,9.60
2013,09,28,17,17,6.40
2013,09,28,17,18,11.30
2013,09,28,17,19,6.40
2013,09,28,17,20,6.40
2013,09,28,17,21,11.30
2013,09,28,17,22,8.10
2013,09,28,17,23,9.60
2013,09,28,17,24,4.80
2013,09,28,17,25,8.10
2013,09,28,17,26,9.60
2013,09,28,17,27,12.90
2013,09,28,17,28,6.40
2013,09,28,17,29,4.80
2013,09,28,17,30,1.60
2013,09,28,17,31,3.20
2013,09,28,17,32,6.40
2013,09,28,17,33,8.10
2013,09,28,17,34,8.10
2013,09,28,17,35,14.50
2013,09,28,17,36,8.10
2013,09,28,17,37,9.60
2013,09,28,17,38,8.10
2013,09,28,17,39,8.10
2013,09,28,17,40,9.60
2013,09,28,17,41,11.30
2013,09,28,17,42,9.60
2013,09,28,17,43,19.30
2013,09,28,17,44,9.60
2013,09,28,17,45,9.60
2013,09,28,17,46,9.60
2013,09,28,17,47,6.40
2013,09,28,17,48,6.40
2013,09,28,17,49,8.10
2013,09,28,17,50,4.80
2013,09,28,17,51,1.60
2013,09,28,17,52,3.20
2013,09,28,17,53,3.20
2013,09,28,17,54,12.90
2013,09,28,17,55,6.40
2013,09,28,17,56,6.40
2013,09,28,17,57,4.80
2013,09,28,17,58,1.60
2013,09,28,17,59,9.60
2013,09,28,18,00,9.60
2013,09,28,18,01,11.30
2013,09,28,18,02,4.80
2013,09,28,18,03,4.80
2013,09,28,18,04,4.80
2013,09,28,18,05,6.40
2013,09,28,18,06,8.10
2013,09,28,18,07,6.40
2013,09,28,18,08,3.20
2013,09,28,18,09,3.20
2013,09,28,18,10,11.30
2013,09,28,18,11,1.60
2013,09,28,18,12,8.10
2013,09,28,18,13,12.90
2013,09,28,18,14,9.60
2013,09,28,18,15,8.10
2013,09,28,18,16,11.30
2013,09,28,18,17,9.60
2013,09,28,18,18,11.30
2013,09,28,18,19,9.60
2013,09,28,18,20,8.10
2013,09,28,18,21,8.10
2013,09,28,18,22,8.10
2013,09,28,18,23,11.30
2013,09,28,18,24,17.70
2013,09,28,18,25,14.50
2013,09,28,18,26,9.60
2013,09,28,18,27,16.10
2013,09,28,18,28,12.90
2013,09,28,18,29,9.60
2013,09,28,18,30,8.10
2013,09,28,18,31,9.60
2013,09,28,18,32,4.80
2013,09,28,18,33,9.60
2013,09,28,18,34,8.10
2013,09,28,18,35,12.90
2013,09,28,18,36,12.90
2013,09,28,18,37,11.30
2013,09,28,18,38,11.30
2013,09,28,18,39,8.10
2013,09,28,18,40,17.70
2013,09,28,18,41,11.30
2013,09,28,18,42,20.90
2013,09,28,18,43,16.10
2013,09,28,18,44,17.70
2013,09,28,18,45,12.90
2013,09,28,18,46,11.30
2013,09,28,18,47,19.30
2013,09,28,18,48,12.90
2013,09,28,18,49,11.30
2013,09,28,18,50,17.70
2013,09,28,18,51,19.30
2013,09,28,18,52,9.60
2013,09,28,18,53,11.30
2013,09,28,18,54,19.30
2013,09,28,18,55,11.30
2013,09,28,18,56,12.90
2013,09,28,18,57,11.30
2013,09,28,18,58,14.50
2013,09,28,18,59,16.10
2013,09,28,19,00,11.30
2013,09,28,19,01,8.10
2013,09,28,19,02,11.30
2013,09,28,19,03,8.10
2013,09,28,19,04,14.50
2013,09,28,19,05,12.90
2013,09,28,19,06,6.40
2013,09,28,19,07,1.60
2013,09,28,19,08,4.80
2013,09,28,19,09,6.40
2013,09,28,19,10,1.60
2013,09,28,19,11,4.80
2013,09,28,19,12,3.20
2013,09,28,19,13,1.60
2013,09,28,19,14,1.60
2013,09,28,19,15,8.10
2013,09,28,19,16,4.80
2013,09,28,19,17,8.10
2013,09,28,19,18,1.60
2013,09,28,19,19,1.60
2013,09,28,19,21,1.60
2013,09,28,19,23,6.40
2013,09,28,19,24,3.20
2013,09,28,19,25,1.60
2013,09,28,19,26,1.60
2013,09,28,19,27,3.20
2013,09,28,19,28,4.80
2013,09,28,19,29,4.80
2013,09,28,19,30,3.20
2013,09,28,19,32,3.20
2013,09,28,19,37,1.60
2013,09,28,19,38,1.60
2013,09,28,19,39,1.60
2013,09,28,19,41,1.60
2013,09,28,19,42,1.60
2013,09,28,19,43,1.60
2013,09,28,19,44,3.20
2013,09,28,19,45,1.60
2013,09,28,19,46,1.60
2013,09,28,19,47,1.60
2013,09,28,19,50,1.60
2013,09,28,19,51,1.60
2013,09,28,19,52,1.60
2013,09,28,19,53,3.20
2013,09,28,19,54,1.60
2013,09,28,19,55,1.60
2013,09,28,19,56,1.60
2013,09,28,19,57,1.60
2013,09,28,19,58,3.20
2013,09,28,20,01,3.20
2013,09,28,20,02,3.20
2013,09,28,20,03,3.20
2013,09,28,20,06,1.60
2013,09,28,20,07,1.60
2013,09,28,20,09,6.40
2013,09,28,20,11,1.60
2013,09,28,20,12,1.60
2013,09,28,20,13,1.60
2013,09,28,20,14,1.60
2013,09,28,20,15,4.80
2013,09,28,20,16,1.60
2013,09,28,20,17,1.60
2013,09,28,20,18,1.60
2013,09,28,20,19,1.60
2013,09,28,20,21,3.20
2013,09,28,20,22,3.20
2013,09,28,20,23,1.60
2013,09,28,20,24,1.60
2013,09,28,20,25,6.40
2013,09,28,20,26,4.80
2013,09,28,20,27,1.60
2013,09,28,20,28,1.60
2013,09,28,20,29,1.60
2013,09,28,20,32,1.60
2013,09,28,20,39,3.20
2013,09,28,20,40,1.60
2013,09,28,20,41,1.60
2013,09,28,20,43,1.60
2013,09,28,20,46,1.60
2013,09,28,20,47,3.20
2013,09,28,20,48,1.60
2013,09,28,20,50,3.20
2013,09,28,20,51,1.60
2013,09,28,20,52,1.60
2013,09,28,20,53,3.20
2013,09,28,20,54,1.60
2013,09,28,20,55,1.60
2013,09,28,21,05,1.60
2013,09,28,21,18,1.60
2013,09,28,21,21,1.60
2013,09,28,21,22,1.60
2013,09,28,21,23,3.20
2013,09,28,21,26,1.60
2013,09,28,21,27,1.60
2013,09,28,21,35,1.60
2013,09,28,21,47,1.60
2013,09,28,21,48,3.20
2013,09,28,21,49,1.60
2013,09,28,21,51,3.20
2013,09,28,21,52,1.60
2013,09,28,21,53,3.20
2013,09,28,21,54,3.20
2013,09,28,21,55,1.60
2013,09,28,21,56,8.10
2013,09,28,21,57,3.20
2013,09,28,21,58,3.20
2013,09,28,21,59,3.20
2013,09,28,22,00,1.60
2013,09,28,22,01,6.40
2013,09,28,22,02,6.40
2013,09,28,22,03,3.20
2013,09,28,22,04,4.80
2013,09,28,22,05,3.20
2013,09,28,22,06,3.20
2013,09,28,22,08,6.40
2013,09,28,22,09,1.60
2013,09,28,22,10,3.20
2013,09,28,22,11,4.80
2013,09,28,22,12,8.10
2013,09,28,22,13,4.80
2013,09,28,22,14,3.20
2013,09,28,22,15,1.60
2013,09,28,22,16,3.20
2013,09,28,22,17,1.60
2013,09,28,22,18,3.20
2013,09,28,22,19,3.20
2013,09,28,22,20,3.20
2013,09,28,22,21,1.60
2013,09,28,22,22,1.60
2013,09,28,22,23,1.60
2013,09,28,22,26,1.60
2013,09,28,22,27,3.20
2013,09,28,22,28,4.80
2013,09,28,22,29,3.20
2013,09,28,22,31,3.20
2013,09,28,22,32,1.60
2013,09,28,22,33,3.20
2013,09,28,22,34,3.20
2013,09,28,22,35,1.60
2013,09,28,22,40,3.20
2013,09,28,22,41,1.60
2013,09,28,22,42,3.20
2013,09,28,22,44,1.60
2013,09,28,22,45,1.60
2013,09,28,22,52,1.60
2013,09,28,23,06,1.60
2013,09,28,23,07,1.60
2013,09,28,23,09,1.60
2013,09,28,23,10,1.60
2013,09,28,23,11,1.60
2013,09,28,23,15,1.60
2013,09,28,23,16,1.60
2013,09,28,23,17,1.60
2013,09,28,23,18,3.20
2013,09,28,23,22,3.20
2013,09,28,23,23,1.60
2013,09,28,23,24,1.60
2013,09,28,23,26,1.60
2013,09,28,23,27,1.60
2013,09,28,23,28,1.60
2013,09,28,23,39,1.60
2013,09,28,23,44,1.60
2013,09,28,23,45,1.60
2013,09,28,23,46,1.60
2013,09,28,23,47,3.20
2013,09,28,23,48,3.20
2013,09,28,23,49,1.60
2013,09,28,23,50,3.20
2013,09,28,23,51,8.10
2013,09,28,23,52,9.60
2013,09,28,23,53,3.20
2013,09,28,23,54,4.80
2013,09,28,23,55,4.80
2013,09,28,23,56,3.20
2013,09,28,23,57,1.60
2013,09,28,23,58,6.40
2013,09,28,23,59,4.80
